Location: Linton
(52.0940°N, 0.2850°E)
Time: 23:23:45
(UTC+01:00)

ISS - Pass Details

Date: 11 October 2017
Orbit: 401 x 408 km, 51.6° (Epoch: 18 October)

Event Time Altitude Azimuth Distance (km) Brightness Sun altitude
Rises 20:48:20 0° 277° (W) 2,328 1.3 -24.3°
Reaches altitude 10° 20:51:23 10° 246° (WSW) 1,465 -0.5 -24.8°
Enters shadow 20:52:28 12° 227° (SW) 1,342 -0.9 -24.9°
